Tracking 29892 objects as of 21-Nov-2024
HD Live streaming from Space Station
objects crossing your sky now

NOAA 16 DEB

Track NOAA 16 DEB now!
10-day predictions


NORAD ID: 41664
Int'l Code: 2000-055PD
Perigee: 563.2 km
Apogee: 592.1 km
Inclination: 98.9 °
Period: 96.1 minutes
Semi major axis: 6948 km
RCS: Unknown
Launch date: September 21, 2000
Source: United States (US)
Launch site: AIR FORCE WESTERN TEST RANGE (AFWTR)

Note: This is SATELLITE DEBRIS
Your satellite tracking list
Your tracking list is empty




NASA's NSSDC Master Catalog

Two Line Element Set (TLE):
1 41664U 00055PD  24324.41018618  .00214417  00000-0  17185-1 0  9997
2 41664  98.8650 130.9280 0020849 297.7519  62.1586 14.98831291446643
Source of the keplerian elements: AFSPC